[[{"header":{"parameterUnit":"m.s-1","parameterCategory":1,"la1":30.2991,"la2":30.254,"lo1":-89.0895,"lo2":-89.0444,"dy":0.0017,"dx":0.0017,"nx":28,"ny":28,"refTime":"2023-10-19T09:00:00:Z","depth":0,"parameterNumber":2,"parameterNumberName":"U-component_of_WINDS"},"data":[0,0,0,0,0,0,0,0,0,0,0,0,0,0,0,0,0,0,0,0,0,0,0,0,0,0,0,0,0,0,0,0,0,0,0,0,0,0,0,0,0,0,0,0,0,0,0,0,0,0,0,0,0,0,0,0,0,0,3.2271,3.2272,0,3.2372,3.2374,3.2375,3.2344,3.2342,3.234,3.2338,3.2444,3.2449,3.2454,0,0,0,0,0,0,0,0,0,0,0,0,0,3.2054,3.2058,3.2271,3.2272,3.2274,3.2372,3.2374,3.2375,3.2345,3.2342,3.2339,3.2337,3.2443,3.2448,3.2454,0,0,0,0,0,0,0,0,0,0,0,0,0,3.2151,3.206,3.2271,3.227,3.2271,3.2372,3.2374,3.2375,3.2345,3.2342,3.2339,3.2336,3.2441,3.2448,3.2455,3.2563,0,0,3.2477,3.248,0,0,0,0,0,0,0,0,3.2146,3.2159,3.2269,3.227,3.2272,3.2342,3.2336,3.2438,3.2346,3.2317,3.2338,3.2334,3.2413,3.2422,3.2448,3.2568,3.2573,3.2478,3.2482,3.2485,3.2487,0,0,0,0,0,0,0,3.2139,3.2155,3.2311,3.2271,3.2272,3.2266,3.2276,3.2355,3.2382,3.2319,3.2317,3.233,3.2413,3.2442,3.2451,3.2574,3.2477,3.2484,3.2488,3.2491,3.2789,3.2792,0,0,0,0,0,0,3.2131,3.2149,3.2308,3.2314,3.22,3.2272,3.2284,3.2323,3.2381,3.2387,3.2332,3.2328,3.2431,3.2442,3.2454,3.2585,3.2485,3.2492,3.2496,3.2785,3.279,3.2794,0,0,0,0,0,0,3.2127,3.2146,3.2304,3.2231,3.2251,3.2279,3.2324,3.2327,3.2355,3.2391,3.2395,3.2356,3.2429,3.2444,3.2536,3.2588,3.2495,3.2502,3.2781,3.2787,3.2792,3.2848,0,0,0,0,0,0,3.212,3.2144,3.2185,3.2232,3.2255,3.2383,3.2327,3.2331,3.2367,3.2362,3.2414,3.242,3.2427,3.2526,3.2544,3.2597,3.2507,3.2777,3.2784,3.279,3.2841,3.2854,3.2865,0,0,0,0,0,3.2113,3.2197,3.2187,3.2206,3.2306,3.2386,3.2399,3.2406,3.2371,3.2413,3.2436,3.2418,3.258,3.2535,3.2555,3.2611,3.2773,3.2782,3.2789,3.2836,3.2852,3.2865,0,0,0,0,0,0,3.2155,3.2203,3.2192,3.2294,3.2336,3.2381,3.2433,3.2422,3.2475,3.2469,3.2475,3.2487,3.2582,3.2606,3.2555,3.272,3.2672,3.2684,3.27,3.2716,3.2728,3.272,3.2513,0,0,0,0,0,3.2175,3.2236,3.2275,3.2361,3.2383,3.2405,3.244,3.2441,3.2485,3.2503,3.2533,3.2578,3.2639,3.2679,3.2737,3.2845,3.2856,3.2894,3.2906,3.2915,3.2926,3.2986,3.3003,3.282,3.282,3.282,0,0,3.2219,3.2253,3.2291,3.237,3.2403,3.2466,3.242,3.2488,3.2536,3.2514,3.2602,3.2626,3.2677,3.2778,3.2824,3.2801,3.2979,3.2926,3.2933,3.2938,3.2996,3.3013,3.3029,3.2826,3.2825,3.2824,0,0,3.2332,3.2363,3.2438,3.2473,3.2523,3.2537,3.2555,3.2602,3.2617,3.2706,3.2691,3.2749,3.2853,3.289,3.2922,3.305,3.3036,3.3069,3.3132,3.3191,3.3205,3.3218,3.3264,3.328,3.308,3.308,3.308,0,3.238,3.2474,3.2479,3.2549,3.2585,3.2568,3.2645,3.2678,3.2745,3.2771,3.2744,3.2876,3.2908,3.3018,3.3049,3.3076,3.3098,3.3063,3.3202,3.3215,3.3227,3.3271,3.3289,3.3083,3.3083,3.3083,3.3082,0,3.2531,3.2597,3.2652,3.2716,3.2759,3.2832,3.2849,3.2891,3.289,3.2907,3.2999,3.3038,3.3103,3.313,3.3129,3.324,3.3224,3.32,3.3152,3.3248,3.329,3.3307,3.3089,3.3087,3.3086,3.3085,0,0,3.2671,3.2739,3.2759,3.2788,3.2843,3.2895,3.2968,3.3032,3.3069,3.3116,3.3178,3.3268,3.3246,3.3283,3.3286,3.3338,3.3437,3.3307,3.3309,3.333,3.3563,3.3581,3.36,3.3429,3.3432,3.3435,3.3559,0,3.2788,3.2916,3.2923,3.304,3.3101,3.3087,3.3151,3.3192,3.3211,3.3267,3.3288,3.3351,3.3317,3.334,3.339,3.3415,3.3484,3.3406,3.3487,3.349,3.3475,3.3622,3.364,3.3756,3.3575,3.3578,3.358,0,3.2941,3.2993,3.3115,3.3163,3.3189,3.3246,3.3306,3.3359,3.3406,3.3417,3.3458,3.3455,3.3531,3.3481,3.3587,3.3534,3.3568,3.3585,3.359,3.3597,3.354,3.3633,3.3793,3.381,3.3606,3.3603,3.3602,0,3.3031,3.3132,3.3218,3.3244,3.3301,3.3342,3.3368,3.3412,3.3451,3.3504,3.3529,3.3591,3.3624,3.3672,3.3686,3.3648,3.3792,3.3743,3.3804,3.3803,3.3834,3.3832,3.4001,3.3857,3.3856,3.3856,3.3856,0,3.316,3.3236,3.3259,3.3312,3.3397,3.3406,3.349,3.3513,3.3553,3.3611,3.3604,3.3659,3.3673,3.3732,3.3743,3.383,3.3845,3.3856,3.3858,3.3857,3.3855,3.3879,3.3871,3.3861,3.386,3.3859,3.3858,0,3.3274,3.3293,3.3386,3.3434,3.3447,3.3508,3.3549,3.36,3.3619,3.3693,3.3711,3.374,3.3808,3.3827,3.3909,3.3917,3.4019,3.4013,3.4002,3.4002,3.4062,3.4056,3.4252,3.4278,3.4116,3.4118,3.4119,0,3.3355,3.3413,3.3467,3.3505,3.3533,3.3595,3.3634,3.3646,3.3687,3.3746,3.3791,3.3858,3.3913,3.4023,3.4052,3.4115,3.4111,3.4176,3.4121,3.4118,3.4112,3.4109,3.4115,3.4186,3.4188,3.4189,3.419,0,3.3497,3.3504,3.356,3.3621,3.3668,3.3716,3.3763,3.3795,3.3813,3.3861,3.393,3.3972,3.4056,3.4124,3.4188,3.4216,3.4207,3.4207,3.4225,3.4223,3.4214,3.422,3.403,3.4203,3.4201,3.42,3.42,3.4199,3.3597,3.3648,3.3694,3.3758,3.3794,3.3838,3.3889,3.3914,3.3972,3.4041,3.4045,3.4121,3.4168,3.4253,3.4285,3.4345,3.4326,3.4351,3.4357,3.4363,3.4368,3.4205,3.4357,3.4357,3.4356,3.4356,3.4356,0,3.3739,3.3768,3.3826,3.3892,3.3942,3.3929,3.398,3.4023,3.409,3.4135,3.4189,3.427,3.4335,3.437,3.4436,3.4477,3.4475,3.4494,3.4491,3.4498,3.4382,3.436,3.4495,3.4495,3.4495,3.4495,3.4495,3.4495,3.3818,3.3904,3.3916,3.4021,3.405,3.4123,3.4154,3.4195,3.4231,3.4321,3.4375,3.4397,3.4439,3.4508,3.4568,3.4576,3.4601,3.4623,3.4629,3.452,3.4506,3.4492,3.4472,3.4628,3.4628,3.474,3.4741,3.4742]},{"header":{"parameterUnit":"m.s-1","parameterCategory":1,"la1":30.2991,"la2":30.254,"lo1":-89.0895,"lo2":-89.0444,"dy":0.0017,"dx":0.0017,"nx":28,"ny":28,"refTime":"2023-10-19T09:00:00:Z","depth":0,"parameterNumber":3,"parameterNumberName":"V-component_of_WINDS"},"data":[0,0,0,0,0,0,0,0,0,0,0,0,0,0,0,0,0,0,0,0,0,0,0,0,0,0,0,0,0,0,0,0,0,0,0,0,0,0,0,0,0,0,0,0,0,0,0,0,0,0,0,0,0,0,0,0,0,0,1.4225,1.4226,0,1.4265,1.4266,1.4266,1.4249,1.4248,1.4247,1.4246,1.4287,1.4289,1.4291,0,0,0,0,0,0,0,0,0,0,0,0,0,1.4133,1.4135,1.4225,1.4226,1.4226,1.4265,1.4266,1.4266,1.4249,1.4248,1.4247,1.4246,1.4286,1.4289,1.4291,0,0,0,0,0,0,0,0,0,0,0,0,0,1.4173,1.4135,1.4225,1.4222,1.4223,1.4265,1.4266,1.4266,1.425,1.4248,1.4247,1.4245,1.4286,1.4288,1.4291,1.4339,0,0,1.43,1.4302,0,0,0,0,0,0,0,0,1.4171,1.4177,1.4222,1.4223,1.4223,1.4251,1.4248,1.4291,1.425,1.4239,1.4246,1.4245,1.4276,1.428,1.429,1.434,1.4342,1.4301,1.4303,1.4304,1.4305,0,0,0,0,0,0,0,1.4168,1.4175,1.4241,1.4223,1.4223,1.4219,1.4223,1.4256,1.4265,1.424,1.4239,1.4244,1.4276,1.4288,1.4291,1.4343,1.4301,1.4303,1.4305,1.4306,1.4433,1.4434,0,0,0,0,0,0,1.4165,1.4172,1.424,1.4242,1.4193,1.4222,1.4226,1.4243,1.4265,1.4267,1.4245,1.4243,1.4283,1.4288,1.4293,1.4349,1.4304,1.4307,1.4308,1.4431,1.4433,1.4435,0,0,0,0,0,0,1.4164,1.4172,1.4238,1.4207,1.4215,1.4225,1.4244,1.4245,1.4256,1.4269,1.427,1.4256,1.4282,1.4288,1.4327,1.435,1.4308,1.4311,1.4429,1.4432,1.4434,1.4463,0,0,0,0,0,0,1.4161,1.4171,1.4189,1.4208,1.4217,1.4272,1.4245,1.4247,1.4262,1.4259,1.4279,1.4281,1.4282,1.4323,1.433,1.4354,1.4313,1.4427,1.443,1.4433,1.446,1.4466,1.4471,0,0,0,0,0,1.4158,1.4196,1.419,1.4198,1.424,1.4274,1.4279,1.428,1.4264,1.4282,1.429,1.428,1.4346,1.4327,1.4335,1.436,1.4426,1.443,1.4433,1.4457,1.4464,1.4471,0,0,0,0,0,0,1.418,1.4198,1.4192,1.4237,1.4254,1.4271,1.4294,1.4287,1.4309,1.4306,1.4305,1.431,1.435,1.4358,1.4336,1.4406,1.4384,1.4389,1.4399,1.4406,1.4412,1.4409,1.4315,0,0,0,0,0,1.419,1.4216,1.423,1.4269,1.4277,1.4284,1.4299,1.4298,1.4315,1.4322,1.4333,1.435,1.4374,1.4391,1.4414,1.446,1.4464,1.4481,1.4487,1.4491,1.4496,1.4521,1.4529,1.4447,1.4447,1.4447,0,0,1.4211,1.4224,1.4241,1.4274,1.4286,1.4313,1.429,1.432,1.434,1.4327,1.4364,1.4372,1.4391,1.4434,1.4453,1.4442,1.452,1.4496,1.4499,1.4502,1.4526,1.4533,1.454,1.4449,1.4449,1.4448,0,0,1.4264,1.4276,1.431,1.4323,1.4343,1.4347,1.4355,1.4372,1.4377,1.4415,1.4405,1.4429,1.4471,1.4485,1.4497,1.4554,1.4546,1.4562,1.4591,1.4615,1.4622,1.4628,1.4648,1.4655,1.4566,1.4566,1.4567,0,1.4288,1.4328,1.4327,1.4358,1.4372,1.4361,1.4395,1.4408,1.4434,1.4444,1.4431,1.4484,1.4496,1.4542,1.4556,1.4566,1.4575,1.456,1.4621,1.4627,1.4632,1.4651,1.4659,1.4568,1.4568,1.4568,1.4568,0,1.4356,1.4384,1.4409,1.4435,1.4452,1.4483,1.4487,1.4505,1.4502,1.4507,1.4545,1.4559,1.4585,1.4595,1.4593,1.4641,1.4633,1.4621,1.4598,1.4642,1.466,1.4667,1.4571,1.457,1.457,1.4569,0,0,1.4425,1.4449,1.4458,1.447,1.449,1.4512,1.4543,1.4568,1.4583,1.4601,1.4627,1.4663,1.4651,1.4665,1.4664,1.4685,1.473,1.467,1.4671,1.4681,1.4783,1.4792,1.4801,1.4724,1.4725,1.4726,1.4781,0,1.4479,1.4534,1.4534,1.4584,1.4609,1.4599,1.4626,1.4641,1.4647,1.4669,1.4675,1.4701,1.4684,1.4692,1.4713,1.472,1.475,1.4716,1.4748,1.4749,1.4744,1.481,1.4821,1.4872,1.4788,1.4789,1.479,0,1.455,1.457,1.4623,1.464,1.465,1.4675,1.4697,1.4719,1.4736,1.4738,1.4754,1.4749,1.478,1.4756,1.4799,1.4776,1.4788,1.4794,1.4796,1.4799,1.4773,1.4816,1.4888,1.4896,1.4802,1.4801,1.48,0,1.4595,1.4635,1.4672,1.4682,1.4702,1.4719,1.4728,1.4744,1.4759,1.4779,1.4788,1.4812,1.4824,1.4842,1.4844,1.4826,1.4886,1.4863,1.4889,1.4889,1.4903,1.4902,1.4979,1.4911,1.4911,1.491,1.491,0,1.4656,1.4688,1.4693,1.4715,1.4751,1.4751,1.4786,1.4794,1.4808,1.4831,1.4823,1.4846,1.4846,1.4869,1.487,1.4905,1.4911,1.4914,1.4914,1.4915,1.4914,1.4923,1.492,1.4912,1.4912,1.4912,1.4911,0,1.4712,1.4716,1.4756,1.4771,1.4776,1.4802,1.4815,1.4836,1.4841,1.4871,1.4878,1.4885,1.4911,1.4914,1.4945,1.4945,1.4988,1.4984,1.4982,1.4982,1.5008,1.5006,1.5093,1.5105,1.5029,1.503,1.503,0,1.4751,1.4776,1.4794,1.4809,1.4819,1.4844,1.4859,1.4859,1.4875,1.4896,1.4915,1.494,1.4961,1.5003,1.5011,1.5034,1.503,1.506,1.5034,1.5034,1.5031,1.503,1.5032,1.5065,1.5066,1.5066,1.5067,0,1.4819,1.482,1.4842,1.4866,1.4884,1.4902,1.4919,1.4932,1.4934,1.4952,1.4979,1.4995,1.5026,1.5051,1.5074,1.5083,1.5075,1.5075,1.5082,1.5084,1.5082,1.5083,1.4996,1.5073,1.5072,1.5072,1.5071,1.5071,1.4868,1.489,1.4906,1.4931,1.4944,1.496,1.498,1.4987,1.501,1.5035,1.5033,1.5063,1.5078,1.5108,1.5119,1.5141,1.5132,1.5142,1.5145,1.5148,1.5151,1.5078,1.5145,1.5145,1.5145,1.5145,1.5145,0,1.4937,1.4946,1.4969,1.4993,1.5013,1.5004,1.5022,1.5039,1.5065,1.508,1.51,1.5131,1.5155,1.5164,1.5188,1.5204,1.5201,1.521,1.5209,1.5211,1.5158,1.5149,1.5212,1.5212,1.5212,1.5212,1.5212,1.5212,1.4974,1.501,1.5013,1.5055,1.5064,1.5093,1.5104,1.5118,1.513,1.5165,1.5185,1.5191,1.5204,1.5228,1.5249,1.5251,1.5261,1.5271,1.5272,1.5222,1.5215,1.5209,1.52,1.5273,1.5273,1.5323,1.5324,1.5324]}]]